EW4196 Weather Reports


Display with metric or nautical units.
time (UTC)temp
F
wind
direction
speed
MPH
gust
MPH
rain 1hr
in
rain 24hr
in
rain mn
in
humidity
%
barometer
mb
20260510130054 63 91 0.0 0.0 0.00 0.00 0.00 85 1015.7
20260510124606 63 91 0.0 0.0 0.00 0.00 0.00 85 1015.6
20260510123049 63 91 0.0 0.0 0.00 0.00 0.00 85 1014.7
20260510121545 63 91 0.0 0.0 0.00 0.00 0.00 85 1014.2
20260510120042 62 91 0.0 0.0 0.00 0.00 0.00 85 1013.7
20260510114540 62 91 0.0 0.0 0.00 0.00 0.00 84 1013.0
20260510113038 62 92 0.0 0.0 0.00 0.00 0.00 82 1012.7
20260510111534 63 92 0.0 0.0 0.00 0.00 0.00 81 1012.7
20260510110038 63 92 0.0 0.0 0.00 0.00 0.00 79 1012.5
20260510104530 64 92 0.0 0.0 0.00 0.00 0.00 76 1012.2
20260510103033 65 92 0.0 0.0 0.00 0.00 0.00 76 1012.0
20260510101529 65 98 0.0 1.0 0.00 0.00 0.00 76 1012.0
20260510100029 64 149 0.0 0.0 0.00 0.00 0.00 77 1011.9
20260510094544 64 149 0.0 0.0 0.00 0.00 0.00 76 1011.6
20260510093031 64 149 0.0 0.0 0.00 0.00 0.00 76 1011.5
20260510091525 65 149 0.0 0.0 0.00 0.00 0.00 74 1011.3
20260510090024 66 149 0.0 0.0 0.00 0.00 0.00 72 1011.3
20260510084521 66 149 0.0 0.0 0.00 0.00 0.00 71 1010.9
20260510083019 67 149 0.0 1.0 0.00 0.00 0.00 70 1010.2
20260510081519 67 158 0.0 3.0 0.00 0.00 0.00 70 1009.6
20260510080023 67 148 0.0 1.0 0.00 0.00 0.00 71 1009.4
20260510074518 67 134 0.0 3.0 0.00 0.00 0.00 70 1008.7
20260510073019 67 114 3.0 16.0 0.00 0.00 0.00 70 1007.8
20260510071514 66 172 0.0 3.0 0.00 0.00 0.00 73 1010.5
20260510070020 67 107 1.0 8.0 0.00 0.01 0.00 69 1010.2
20260510064506 69 132 1.0 8.0 0.00 0.01 0.00 62 1010.3
20260510063005 70 130 1.0 5.0 0.00 0.01 0.00 61 1013.1
20260510061502 70 132 0.0 0.0 0.00 0.01 0.00 65 1012.3
20260510060003 70 150 0.0 0.0 0.00 0.01 0.00 63 1012.2
20260510054601 70 150 0.0 0.0 0.00 0.01 0.00 63 1012.4
20260510053105 71 150 0.0 0.0 0.00 0.01 0.00 64 1012.6
20260510051558 71 155 0.0 2.0 0.00 0.01 0.00 65 1012.7
20260510050057 69 157 0.0 4.0 0.00 0.01 0.01 67 1012.4
20260510044550 67 94 0.0 0.0 0.00 0.01 0.01 74 1011.4
20260510043059 67 95 0.0 0.0 0.00 0.01 0.01 73 1011.2
20260510041545 67 94 0.0 0.0 0.00 0.01 0.01 73 1010.9
20260510040045 68 94 0.0 0.0 0.00 0.01 0.01 70 1010.7
20260510034544 68 94 0.0 0.0 0.00 0.01 0.01 69 1010.6
20260510033048 68 94 0.0 0.0 0.00 0.01 0.01 68 1010.5
20260510031547 69 94 0.0 0.0 0.00 0.01 0.01 66 1010.5
20260510030041 69 94 0.0 0.0 0.00 0.01 0.01 65 1010.5
20260510024544 69 95 0.0 0.0 0.00 0.01 0.01 64 1010.3
20260510023041 70 95 0.0 0.0 0.00 0.01 0.01 61 1009.8
20260510021546 70 94 0.0 0.0 0.00 0.01 0.01 57 1008.9
20260510020040 71 94 0.0 0.0 0.00 0.03 0.01 56 1008.6
20260510014541 73 94 0.0 0.0 0.00 0.03 0.01 52 1008.3
20260510013047 75 94 0.0 0.0 0.00 0.03 0.01 48 1008.1
20260510011543 76 94 0.0 0.0 0.00 0.03 0.01 45 1007.9
20260510010038 78 94 0.0 1.0 0.00 0.20 0.01 42 1007.8
20260510004537 79 93 0.0 3.0 0.00 0.20 0.01 41 1007.8
20260510003037 80 94 0.0 3.0 0.00 0.20 0.01 37 1007.5
20260510001541 80 95 0.0 4.0 0.00 0.20 0.01 39 1007.6
20260510000046 81 93 1.0 5.0 0.00 0.31 0.01 37 1007.6
20260509234535 81 96 0.0 7.0 0.00 0.31 0.01 34 1007.7
20260509233033 82 105 0.0 5.0 0.00 0.31 0.01 31 1007.7
20260509231531 83 106 1.0 7.0 0.00 0.31 0.01 33 1007.8
20260509230033 84 98 0.0 5.0 0.00 0.31 0.01 35 1007.9
20260509224530 84 93 3.0 9.0 0.00 0.31 0.01 33 1008.0
20260509223026 84 97 2.0 8.0 0.00 0.31 0.01 32 1008.1
20260509221525 85 93 1.0 8.0 0.00 0.31 0.01 32 1008.1
20260509220025 86 113 2.0 8.0 0.00 0.31 0.01 25 1008.3
20260509214524 85 100 2.0 8.0 0.00 0.31 0.01 19 1008.2
20260509213028 85 96 0.0 7.0 0.00 0.31 0.01 27 1008.4
20260509211520 85 102 1.0 6.0 0.00 0.31 0.01 24 1008.5
20260509210019 85 98 2.0 7.0 0.00 0.31 0.01 29 1008.7
20260509204517 85 101 0.0 6.0 0.00 0.31 0.01 29 1008.9
20260509203017 86 93 0.0 7.0 0.00 0.31 0.01 31 1009.0
20260509201513 86 90 1.0 9.0 0.00 0.31 0.01 31 1009.1
20260509200013 85 96 2.0 6.0 0.00 0.31 0.01 33 1009.2
20260509194511 85 95 0.0 7.0 0.00 0.31 0.01 35 1009.4
20260509193021 86 94 1.0 4.0 0.00 0.31 0.01 28 1009.6
20260509191510 85 103 1.0 6.0 0.00 0.31 0.01 26 1009.7
20260509190007 85 173 0.0 6.0 0.00 0.31 0.01 32 1009.6
20260509184519 85 102 2.0 8.0 0.00 0.31 0.01 32 1009.7
20260509183005 84 94 1.0 3.0 0.00 0.31 0.01 32 1009.9
20260509181502 84 139 0.0 2.0 0.00 0.31 0.01 42 1010.0
20260509174620 82 135 0.0 1.0 0.00 0.31 0.01 49 1010.5
20260509173059 81 131 0.0 3.0 0.00 0.31 0.01 54 1010.6
20260509171552 80 92 0.0 4.0 0.00 0.31 0.01 58 1010.7
20260509170051 81 107 0.0 3.0 0.00 0.31 0.01 61 1010.8
20260509164547 79 130 0.0 3.0 0.00 0.31 0.01 62 1010.9
20260509163044 78 131 0.0 4.0 0.00 0.31 0.01 65 1011.0
20260509161541 77 103 0.0 1.0 0.00 0.31 0.01 70 1011.0
20260509160037 75 101 0.0 2.0 0.00 0.31 0.01 73 1011.0
20260509154532 73 98 0.0 2.0 0.00 0.31 0.01 80 1010.8
20260509153039 71 95 0.0 3.0 0.00 0.31 0.01 89 1010.7
20260509151523 69 96 0.0 1.0 0.00 0.31 0.01 95 1010.8
20260509150021 68 97 0.0 1.0 0.00 0.31 0.01 97 1010.9
20260509144523 66 98 0.0 1.0 0.00 0.31 0.01 98 1010.9
20260509143013 63 97 0.0 0.0 0.00 0.31 0.01 98 1011.0
20260509141509 61 94 0.0 0.0 0.00 0.31 0.01 98 1011.0
20260509140008 60 138 0.0 0.0 0.00 0.31 0.01 97 1010.9
20260509134504 59 138 0.0 0.0 0.00 0.31 0.01 97 1010.8
20260509133002 58 138 0.0 0.0 0.00 0.31 0.01 97 1010.6
20260509131601 57 138 0.0 0.0 0.00 0.31 0.01 97 1010.3